CAPE
5140 4811 4791 4825 4899 4856 4862 4719 4472 4395 4360 4239 4259 4033 3864 3594 3319 3095 3151 2820 2408 2086 1774 1697 1390 1245 994 948 984 892 1035 1090 935 1141 1159 1096 1289 824 798 900 870 986 992 1036 800 933 1027 765 912 853 756 879 1132 1070 1020 1109 1169 1224 1304 1359 1396 1506 1322 1287 1064 902 998 1171 1042 833 802 757 537 721 701 779 686 733 499 412 406 374 411 465 484
5218 4827 5056 5098 4898 4899 4766 4709 4503 4339 4255 4228 4130 4216 4098 3844 3636 3481 3249 3076 2440 1938 1784 1782 1568 1387 971 1152 1096 1142 1309 1143 1080 1102 1154 1026 948 813 714 1024 940 1047 959 852 1156 823 979 996 872 872 983 980 940 975 931 761 689 711 1154 1250 1486 1668 1144 1400 1361 1140 974 1099 1292 1271 944 741 584 648 667 803 627 654 682 608 656 559 500 503 488
5122 5156 5166 5095 4885 4817 4969 4836 4519 4342 4200 4186 3769 3768 4091 4048 3903 3692 3284 3020 2545 2013 1888 1748 1692 1420 968 1166 1309 1214 1343 1108 1034 1146 1176 1060 800 820 758 910 1172 1113 924 979 938 906 874 918 801 841 987 933 876 827 750 818 740 809 883 1000 988 933 1101 1112 873 736 722 743 914 891 865 1083 778 896 956 958 807 809 614 602 452 367 398 410 430
4966 5271 5124 5006 4856 4944 5065 5026 4538 4132 3860 4002 3657 3454 3381 3966 3931 3798 3344 3022 2666 2290 2058 1811 1766 1419 1068 1100 1374 1110 1248 1187 1157 1062 1158 941 658 766 807 777 931 966 825 808 792 845 788 873 762 671 844 906 918 1020 1097 1083 1104 1266 1030 962 1046 994 1036 1142 1192 981 931 880 864 808 878 1028 1113 1111 1113 913 686 692 770 602 641 507 443 454 484
4641 5004 4861 4457 4603 4877 4887 4932 4822 4436 4085 3922 3763 3371 3387 3760 3865 3628 3335 2969 2779 2449 2204 1782 1625 1428 1230 1206 1273 970 1006 1286 1205 935 1182 1000 901 971 898 850 869 933 897 902 944 837 809 793 923 894 923 961 1009 956 1022 947 1058 1222 1031 997 1023 1101 996 1028 1533 1534 1174 1179 1191 1243 1257 1076 972 992 1010 834 876 820 676 690 701 620 599 554 350
4516 4979 5068 4985 5016 5129 4805 4514 4602 4635 4342 4087 3788 3592 3482 4004 3910 3764 3508 3121 2954 2545 2412 1589 1477 1323 1280 1393 1119 978 1014 1130 1199 949 985 1025 1078 1034 984 866 821 902 896 934 840 888 859 910 907 974 1002 988 953 1030 1010 875 1096 1150 1123 1108 1143 1211 1238 1435 1763 1434 1202 836 847 927 1109 1075 976 862 878 1058 1048 810 474 362 372 439 624 817 578
4329 5259 5180 4441 4922 5126 4889 4636 4783 4688 4556 4326 4143 4059 3557 3541 3470 3375 3156 2896 2737 2481 2495 1788 1385 1292 1249 1476 1112 1032 1063 1158 1128 960 739 697 905 1030 924 874 775 798 797 763 737 824 854 922 1029 1148 1124 1024 949 943 1063 1056 835 780 1087 1250 1136 998 1191 1523 1168 1261 1330 1134 982 946 942 995 828 835 1000 873 766 447 275 305 330 514 865 978 833
4378 5262 5213 4732 4781 4993 5099 4548 4646 4795 4755 4603 4413 4254 3888 3670 3768 3505 3328 3151 2738 2463 2418 1889 1540 1179 1321 1504 1310 933 801 1100 1045 939 711 640 877 1048 961 774 668 742 762 825 729 657 747 720 544 856 977 1051 1056 1006 1112 1184 1110 1045 1602 1534 1254 1160 1031 1064 1141 1121 990 876 816 784 866 853 797 795 921 1040 709 555 505 441 485 534 500 632 775
4537 5058 5284 5094 5108 5176 5302 5065 4731 4931 4998 4866 4667 4615 4457 4041 3799 3783 3497 3198 2700 2438 2267 1957 1660 1424 1497 1461 1244 842 654 716 913 790 540 552 851 1050 976 801 644 695 856 804 850 848 704 724 558 589 884 1466 1147 1078 1037 992 1367 1638 1944 1434 1109 925 980 939 922 820 735 695 626 597 526 501 617 720 704 826 723 469 657 784 544 486 583 646 772
4550 5096 5341 5321 5351 5491 5568 5302 5071 5164 5258 5180 4965 4782 4568 4236 3866 3961 3762 3394 3189 2858 2386 2172 1894 1657 1676 1368 1152 887 874 782 627 535 402 563 730 877 906 805 748 776 927 885 847 876 909 843 730 738 1024 1178 1542 1595 844 336 318 739 1186 1111 1142 1154 984 891 832 747 694 636 532 427 318 248 237 307 397 418 374 642 831 905 606 626 689 526 504
4701 5090 5344 5490 5645 5749 5787 5671 5548 5449 5492 5503 5386 4956 4543 4280 4042 4214 4038 3662 3317 3122 2774 2082 1994 1812 1503 1260 1090 1010 1074 908 795 734 487 519 690 800 721 958 1107 898 718 896 1001 1006 1057 1058 1024 1234 1510 1240 954 943 950 725 670 559 328 245 414 794 655 580 533 637 637 525 516 479 357 329 374 442 412 307 434 433 370 835 967 724 454 305 275
4812 5135 5432 5722 5900 5938 5977 5973 5861 5716 5719 5602 5476 5078 4619 4376 4302 4370 4344 4064 3632 3375 2946 2154 2014 1824 1655 1530 1390 1314 1369 1178 1072 625 653 432 369 698 845 987 743 649 771 622 747 902 1027 968 893 839 878 1121 1139 1685 899 549 455 419 492 590 643 698 615 523 526 508 462 348 266 339 394 309 346 434 469 428 579 495 556 527 522 462 390 341 357
5091 5309 5745 5976 6079 6203 6106 6130 6081 6017 5818 5592 5407 5090 4818 4655 4588 4398 4265 4273 3971 3444 2567 2323 2097 1880 1798 1735 1618 1559 1501 1457 1319 1017 878 701 397 448 803 325 281 327 657 612 571 915 1315 1338 1262 1132 1961 2798 1822 1713 1721 1666 1195 979 846 682 650 652 634 536 429 204 158 153 186 303 340 373 385 484 677 719 609 536 466 380 349 377 365 342 360
5318 5472 6061 6255 6332 6334 6378 6286 6120 5927 5669 5499 5270 4969 4739 4505 4255 3996 3973 4052 4075 3551 2755 2547 2274 2069 1971 1862 1750 1585 1513 1448 1405 1410 1082 830 510 421 491 681 912 503 402 478 539 908 1313 1528 1670 2314 1756 1453 1657 1610 1581 1616 1821 1761 1544 1422 1356 1196 871 632 211 176 5 28 172 306 264 304 405 494 642 548 316 249 238 178 196 111 105 146 189
5646 5819 6249 6417 6472 6454 6418 6172 5872 5729 5405 5190 4952 4746 4534 4292 4051 3857 3714 3840 3976 3573 2945 2691 2458 2281 2106 1916 1783 1710 1755 1659 1503 1428 1280 899 630 390 300 441 400 402 312 280 571 830 1325 1753 2214 1751 1321 1609 1851 1860 1516 1617 1702 1574 1362 1238 1290 1322 1223 1188 885 565 76 0 1 222 444 583 525 383 453 374 108 77 43 25 29 40 31 43 94
5991 6008 6429 6440 6492 6364 6292 6042 5698 5404 5123 4811 4641 4389 4137 4066 3948 3965 3678 3640 3356 3044 2869 2690 2570 2405 2196 1990 1837 1855 1609 1527 1448 1484 1192 616 576 426 480 514 486 432 398 312 521 927 1290 1558 2345 1479 1189 1137 1638 1483 1760 1816 1576 1451 1333 1240 1105 864 630 420 144 128 138 267 263 300 141 104 172 11 51 10 1 47 73 27 12 11 30 67 75
6158 6083 6338 6421 6398 6290 6132 5835 5524 5273 4954 4618 4354 4135 4053 3966 3977 4073 3758 3574 3108 3029 2826 2662 2566 2496 2310 2091 2023 1682 1478 1408 1445 1579 1364 1038 507 533 524 528 520 517 409 651 759 1055 1316 1435 2175 1673 1578 1384 1536 1528 1360 1199 1381 1200 1065 859 844 609 361 377 92 0 0 0 0 0 0 0 0 0 0 0 0 3 12 17 9 3 3 42 105
6352 6430 6434 6362 6227 5974 5703 5402 5117 5059 4811 4480 4210 4008 3770 3723 3892 3888 3685 3470 3075 2815 2643 2548 2534 2492 2354 2202 1922 1521 1419 1442 1492 1545 1230 863 708 603 497 508 547 537 417 776 1044 1404 1530 1264 2064 2302 1764 1699 1590 1332 1022 846 990 1162 969 890 649 558 482 234 176 1212 0 0 0 0 0 0 0 0 0 0 0 0 0 0 3 38 62 42 25
6456 6392 6358 6255 5999 5716 5406 5031 4704 4581 4344 4084 3772 3796 3702 3648 3628 3520 3344 3257 3004 2724 2535 2508 2504 2426 2330 2117 1707 1411 1376 1371 1448 1491 1252 828 682 619 572 596 608 514 311 803 1116 1645 1802 1676 1892 1934 1678 1523 1341 1096 918 809 732 864 838 654 516 392 307 230 186 74 119 233 339 210 74 90 73 25 59 1 0 0 0 2 32 89 155 246 120
6131 6194 6275 6138 5616 5340 4948 4590 4347 3926 3759 3820 3813 3770 3372 3218 3431 3328 3066 2934 2777 2524 2342 2353 2341 2230 2042 1754 1362 1064 1058 1228 1291 1376 1078 823 700 612 562 572 522 381 403 669 1246 1408 2824 2373 1644 1596 1522 1458 1189 852 743 615 514 552 525 301 206 352 35 0 94 9 2 4 8 12 16 2 1 24 99 265 586 459 74 29 66 115 192 357 347
6282 6208 5982 5521 5236 4942 4686 4387 4102 3839 3604 3619 3470 3289 3099 3081 3057 3125 2907 2477 2481 2324 2114 2112 2066 1887 1696 1447 1083 926 1247 1361 1206 1074 1039 874 659 537 529 525 483 667 824 868 1933 1846 1591 1542 1610 1553 1479 1166 851 844 864 508 300 47 120 127 151 0 0 0 0 0 0 5 18 21 17 23 14 94 38 43 2 1 192 229 353 362 183 6 0
6018 5826 5482 5119 4743 4488 4302 4235 3888 3595 3601 3454 3504 3416 3326 3213 3023 2832 2486 2331 2212 2098 1948 1878 1847 1666 1442 1284 1386 1463 1512 1518 1187 1146 1103 961 766 548 504 504 447 778 1188 1156 2146 1901 1402 1261 1310 1141 943 728 599 688 484 312 13 0 64 0 0 0 0 0 0 0 0 3 16 2 0 0 0 0 0 0 0 0 0 0 0 0 0 0 0
5613 5417 5136 4940 4471 4216 4041 3592 3424 3314 3368 3356 3353 3307 3135 3087 2681 2676 2220 1972 1896 1890 1903 1784 1654 1506 1478 1397 1412 1552 1462 1258 1162 1136 1049 890 657 578 564 1267 688 1528 1352 1454 2029 1492 1444 1726 1271 862 825 643 500 355 270 263 30 0 0 0 0 0 0 0 0 0 0 0 1 17 5 0 0 0 0 5 0 0 0 0 0 0 0 0 0
5289 5067 4542 4208 3859 3452 3404 3339 3309 3179 3234 3244 3330 3315 3107 3089 2550 2335 2279 1889 1818 1683 1505 1482 1442 1468 1542 1465 1436 1267 1146 1144 1036 995 929 887 796 656 431 340 660 1120 1906 1746 2276 1616 1660 1114 983 931 771 521 408 255 9 0 0 0 0 0 0 0 0 0 0 1 13 1 0 0 1 1 1 7 10 1 0 0 0 0 0 0 0 0 0
4700 4373 4011 3680 3336 3238 3171 3085 3120 3186 3205 3076 3249 3158 2878 2622 2287 2011 1873 1688 1525 1361 1266 1266 1218 1279 1291 1316 1202 1074 1968 1049 854 826 774 637 516 382 391 396 362 578 1496 1199 1102 1067 1034 1014 885 666 539 488 402 316 216 0 0 0 0 0 0 0 0 0 0 0 32 54 23 7 4 13 16 2 1 0 0 0 0 0 0 0 0 0 0
4235 4094 3758 3477 3173 2993 2845 2580 2593 2593 2834 3018 3095 2800 2476 2222 2092 1893 1765 1628 1456 1356 1311 1222 1189 1178 1088 1076 974 1252 1210 784 727 673 617 535 458 444 421 425 407 525 848 1089 994 936 877 648 519 526 460 369 220 0 0 0 0 0 0 0 0 0 0 0 0 13 20 34 13 10 2 0 0 0 0 0 0 0 0 2 0 0 0 0 0
3962 3812 3591 3336 3084 2818 2595 2328 2298 2382 2655 2750 2807 2674 2459 2178 1918 1694 1577 1540 1392 1316 1359 1192 1041 953 955 934 1398 1218 1115 654 583 544 462 474 468 605 585 574 478 446 673 936 987 817 586 517 482 395 246 0 0 0 0 0 0 0 0 0 0 0 0 5 15 42 50 27 4 1 0 0 0 0 0 0 5 10 1 0 0 0 0 0 0
3624 3522 3189 3076 2982 2919 2676 2571 2220 1996 2056 2221 2324 2297 2110 1882 1777 1624 1417 1296 1225 1134 1147 1064 913 864 844 1053 1173 1100 1038 638 512 448 448 375 376 310 228 1 226 376 602 780 662 513 569 551 335 0 0 0 0 0 0 0 0 0 0 0 0 0 0 1 11 16 5 1 0 0 0 4 0 0 0 0 0 0 0 0 0 0 0 0 0
3375 3179 2976 2750 2640 2548 2384 2346 2215 1953 1858 1835 1819 1793 1699 1602 1655 1878 1544 1084 1633 1882 1596 1433 1122 864 823 798 929 1122 956 660 496 455 440 286 189 194 81 156 434 449 430 476 551 454 405 202 0 0 0 0 0 0 0 0 0 0 0 2 8 14 16 13 38 85 35 30 49 16 0 0 0 0 0 0 0 0 0 0 0 0 0 0 0
2653 2356 2233 1982 1852 2073 2097 1723 1583 1728 1748 1618 1525 1509 1473 1344 1283 1208 1297 1194 1184 1405 1310 1343 1374 1076 1201 882 1384 854 888 825 433 284 215 128 0 0 0 351 442 517 564 491 354 298 135 77 6 15 33 28 36 44 15 8 26 47 72 74 49 37 30 31 22 12 132 40 0 0 0 0 0 0 0 0 0 0 0 0 0 0 0 0 0
2252 1983 1876 1690 1548 1886 1830 1718 1597 1538 1592 1541 1395 1352 1376 1358 1325 1232 1216 1260 1270 1334 1329 1184 1081 953 809 696 594 468 497 428 24 252 205 11 9 261 323 395 438 401 351 0 217 264 226 199 148 72 61 28 10 0 8 19 35 82 55 32 37 23 10 11 3 7 15 1 0 0 0 0 0 0 0 0 0 0 0 0 0 0 0 0 0
2436 1794 1602 1796 1650 1930 1908 2022 1518 1486 1516 1467 1304 1231 1248 1286 1216 1183 1204 1222 1213 1232 1236 1099 1000 904 780 656 532 47 0 479 558 201 151 139 98 67 148 192 207 222 178 66 474 113 122 166 53 25 18 3 2 3 0 0 22 8 5 1 8 22 37 4 0 0 0 0 0 0 0 0 0 0 0 0 0 0 0 0 0 0 0 0 0
1840 1711 2470 2218 2229 2122 2078 1623 1503 1424 1431 1408 1343 1234 1146 1115 1144 1076 1004 1062 1152 1170 1157 1056 937 866 819 803 658 470 348 263 61 66 93 63 29 47 92 170 126 0 0 0 83 28 91 80 27 18 2 2 0 0 8 5 3 0 0 8 7 7 0 0 0 0 0 0 0 0 0 0 0 0 0 0 0 0 0 0 0 0 0 0 0
2086 2008 1825 2016 2301 2235 1915 1651 1558 1465 1457 1354 1279 1226 1174 1159 1150 1105 1132 1130 1119 1099 1074 1051 1007 914 827 789 796 677 646 607 472 168 134 68 58 84 16 0 0 0 0 300 4 30 33 18 4 9 35 10 0 2 21 7 3 0 0 0 0 1 10 78 26 2 0 0 0 0 0 0 0 0 0 0 0 0 0 0 0 0 0 0 0
2151 2256 2169 2050 2011 1892 1659 1719 1347 1382 1382 1308 1193 1111 1134 1169 1184 1170 1126 1053 1014 990 984 946 819 709 734 635 525 568 504 324 76 0 57 60 46 47 60 26 0 0 0 0 0 1 7 8 14 16 15 4 1 0 0 0 0 0 0 1 2 0 0 1 0 0 0 0 0 0 0 0 0 0 0 0 0 0 0 0 0 0 0 0 0
1821 1867 2034 1936 1852 1802 1629 1688 1428 1166 1103 1102 1051 1053 1103 1136 1078 1051 1024 953 825 696 736 686 679 665 563 511 402 320 284 146 57 0 0 0 0 0 0 0 0 1 0 0 0 0 0 0 0 0 0 0 1 0 0 0 0 0 0 0 0 0 7 0 0 0 0 0 0 0 0 0 0 0 0 0 0 0 0 0 0 0 0 0 0
1581 1664 1566 1850 1888 1899 1858 1833 1554 1176 970 862 769 735 755 735 788 738 645 570 469 502 585 610 581 486 470 216 0 0 0 0 0 1 0 0 0 0 0 0 0 0 0 0 0 0 0 0 0 0 0 0 0 0 0 0 0 0 0 0 0 0 0 0 0 0 0 0 0 0 0 0 0 0 0 0 0 0 0 0 0 0 0 0 0
1853 1673 1627 1558 1773 1881 1892 1592 1280 1044 923 860 1123 1015 775 677 557 364 237 210 56 168 493 448 324 22 0 0 5 0 0 0 0 0 0 0 0 0 0 0 1 3 0 4 8 1 0 1 0 7 14 3 8 2 0 0 1 0 0 12 26 0 0 0 0 0 0 0 0 0 0 0 0 0 0 0 0 0 0 0 0 0 0 0 0
1686 1668 1130 1036 1346 1501 1396 1167 1100 937 871 986 907 815 717 570 517 374 109 0 0 0 0 0 0 55 63 25 115 38 0 0 0 0 0 0 0 0 0 0 0 0 0 21 23 27 12 3 0 0 0 0 4 0 0 2 5 0 0 0 0 0 8 0 0 0 2 2 0 0 0 0 0 0 0 0 0 0 0 0 0 0 0 0 0
1369 1263 989 861 990 986 1081 1038 987 990 832 820 819 782 644 547 439 304 64 0 0 0 0 79 104 158 8 13 22 0 0 0 0 0 0 0 0 0 0 0 0 0 0 11 0 0 0 1 5 0 0 3 3 1 0 0 0 0 0 0 0 0 0 0 0 0 0 0 0 0 0 0 0 0 0 0 0 0 0 0 0 0 0 0 0
1368 1207 1103 652 750 975 992 832 761 646 545 792 645 531 354 666 630 394 102 7 0 0 0 0 0 52 0 0 0 0 0 0 0 0 0 0 0 0 0 0 0 0 0 1 0 0 0 0 22 20 6 6 0 0 0 0 0 0 0 0 1 0 0 0 0 0 0 0 0 0 0 0 0 0 0 0 0 0 0 0 0 0 0 0 0
1411 1034 805 1040 1009 722 576 539 538 695 533 627 690 628 723 686 457 378 272 118 37 12 6 2 0 0 0 0 0 0 0 0 0 0 0 0 0 0 0 0 0 16 0 4 1 0 0 8 1 0 0 0 0 0 0 0 0 0 0 0 0 0 0 0 2 4 1 0 0 0 0 0 0 0 0 0 0 0 0 0 0 0 0 0 0
1389 1155 1138 1048 941 813 594 572 710 552 595 532 673 687 839 736 636 498 193 183 84 43 28 16 0 0 0 0 0 0 0 0 0 0 0 0 0 0 0 0 0 0 0 4 0 0 4 0 0 0 0 0 0 0 0 0 0 0 0 0 0 0 0 0 0 0 0 0 0 0 0 0 0 0 0 0 0 0 0 0 0 0 0 0 0
864 576 746 1005 910 756 742 944 813 652 520 743 832 652 640 630 497 450 454 292 114 83 52 27 0 0 0 0 0 0 3 0 1 0 0 0 0 0 0 0 2 0 0 0 0 0 0 0 0 0 0 0 0 0 0 0 0 0 0 0 0 0 0 0 0 0 0 0 0 0 0 0 0 0 0 0 0 0 0 0 0 0 0 0 0
446 428 558 648 622 835 700 1270 734 807 802 737 660 482 758 762 466 248 205 194 119 60 7 68 34 9 0 0 0 0 0 0 4 5 4 0 0 0 0 3 4 12 0 0 9 0 0 0 0 0 3 1 0 0 0 0 0 0 0 0 0 0 0 0 0 0 0 0 0 0 0 0 0 0 0 0 0 0 0 0 0 0 0 0 0
19 158 153 328 516 557 694 405 415 595 592 356 385 366 280 209 158 120 55 63 59 47 57 62 36 1 0 0 0 0 0 0 0 0 16 10 1 1 8 4 1 0 0 0 2 0 0 0 0 0 0 0 0 0 0 0 0 0 0 0 0 0 0 0 0 0 0 0 0 0 0 0 0 0 0 0 0 0 0 0 0 0 0 0 0
146 197 156 190 244 180 301 413 430 338 204 100 84 45 21 13 65 124 116 116 69 164 244 194 36 22 1 0 0 0 0 0 0 4 42 36 68 26 2 4 11 3 3 0 3 0 0 0 0 0 0 0 0 0 0 0 0 0 0 0 0 0 0 0 0 0 0 0 0 0 0 0 0 0 0 0 0 0 0 0 0 0 0 0 0
129 122 254 283 462 314 205 140 66 78 56 66 38 12 12 20 42 44 62 67 107 288 394 307 225 135 67 31 0 1 4 0 2 21 17 10 22 23 8 8 5 5 4 4 3 0 0 0 0 0 0 0 0 0 0 0 0 0 0 0 0 0 0 0 0 0 0 0 0 0 0 0 0 0 0 0 0 0 0 0 0 0 0 0 0
101 57 85 81 190 190 75 31 97 23 20 20 27 86 125 66 61 46 105 64 67 259 565 423 410 247 157 110 70 52 32 21 25 50 19 18 34 22 60 8 0 0 0 0 0 0 0 0 0 0 0 0 0 0 0 0 0 0 0 0 0 0 0 0 0 0 0 0 0 0 0 0 0 0 0 0 0 0 0 0 0 0 0 0 0
80 89 102 85 201 264 119 267 87 57 390 106 200 151 92 114 183 201 242 165 196 238 270 313 310 258 257 235 149 81 74 79 59 38 26 24 20 24 30 24 8 4 1 1 0 0 0 0 0 0 0 0 0 0 0 0 0 0 0 0 0 0 0 0 0 0 0 0 0 0 0 0 0 0 0 0 0 0 0 0 0 0 0 0 0
104 82 94 77 46 149 85 185 66 149 256 57 175 131 58 191 128 295 194 159 53 102 232 226 207 176 197 246 235 150 151 200 143 84 67 42 60 52 57 34 20 3 4 9 7 0 0 0 0 0 0 0 0 0 0 0 0 0 0 0 0 0 0 0 0 0 0 0 0 0 0 0 0 0 0 0 0 0 0 0 0 0 0 0 0
Wind_Speed
20 19 18 18 19 19 19 19 20 19 19 18 19 18 18 19 21 21 24 24 25 26 28 28 29 31 32 33 34 34 34 34 35 35 36 37 38 38 40 41 38 34 32 33 32 33 31 26 25 27 29 29 30 29 30 30 31 30 28 28 27 29 29 28 25 24 28 33 33 34 33 35 37 41 42 44 46 49 53 52 49 46 43 41 40
20 19 18 17 18 18 19 19 20 18 19 18 18 19 20 21 23 23 25 24 25 27 29 30 31 33 34 35 35 37 37 36 37 37 38 40 39 39 40 42 40 36 34 34 33 32 29 27 26 26 27 28 29 29 30 30 30 30 29 29 30 31 32 28 26 26 23 32 35 37 36 39 38 42 43 45 47 50 51 50 48 45 42 41 41
21 20 18 18 19 19 19 19 19 19 19 18 21 22 23 23 24 24 24 23 24 27 30 32 33 35 36 36 37 39 39 38 38 38 38 40 40 40 41 40 41 39 38 37 35 32 28 27 26 26 27 28 29 29 30 29 30 29 28 30 30 31 30 29 28 28 27 27 32 35 38 40 41 43 44 46 47 49 48 46 44 43 43 42 43
22 22 20 19 20 19 18 18 20 21 21 20 24 24 24 24 24 25 24 24 26 27 30 32 34 36 37 37 38 40 40 38 40 40 40 42 42 43 43 42 40 41 40 38 35 31 29 28 28 27 28 29 30 29 29 28 28 29 30 31 32 29 29 29 30 30 31 29 31 34 37 39 42 44 45 47 47 47 47 45 44 44 45 46 47
22 23 22 22 20 19 19 19 20 22 23 22 25 25 23 23 23 26 27 27 28 28 30 32 34 36 38 39 40 42 42 40 42 42 41 42 44 44 44 43 42 41 40 39 35 31 30 29 29 30 30 30 29 28 26 25 26 29 31 33 33 31 30 30 31 33 33 31 31 36 38 39 41 44 46 46 46 46 45 44 44 45 47 48 49
23 22 23 22 20 21 20 20 21 23 23 22 22 21 20 21 25 26 28 30 31 31 33 35 37 38 38 40 41 43 44 43 44 45 44 43 42 41 41 40 41 41 40 37 34 31 31 30 30 29 29 29 29 26 24 23 26 31 33 34 33 31 30 31 34 33 35 34 34 34 37 39 42 45 46 47 45 44 44 43 44 46 47 49 52
23 22 23 22 19 19 20 20 20 21 20 18 18 19 21 24 27 28 28 31 33 35 36 37 38 40 40 40 43 44 45 46 46 45 44 43 42 41 40 39 39 39 38 36 33 31 31 33 32 32 30 30 28 26 25 26 30 32 33 32 32 31 31 33 33 34 35 35 36 38 38 42 44 43 46 47 48 46 44 44 43 47 51 53 54
24 23 22 19 17 18 18 18 18 18 17 17 17 19 21 23 24 26 27 29 32 34 37 38 39 41 42 43 44 45 46 47 47 46 45 44 43 42 40 39 39 39 38 36 34 31 32 32 32 33 32 30 29 27 27 30 33 32 33 33 31 30 30 30 32 34 36 36 37 39 43 43 44 45 45 47 45 44 47 48 47 48 51 55 55
25 23 22 20 16 16 17 16 16 16 17 18 19 20 22 22 24 26 28 29 30 34 35 38 39 42 44 46 47 47 47 48 48 48 46 44 44 43 42 40 40 40 39 36 33 33 33 33 31 33 35 34 33 31 32 34 35 33 33 32 31 30 30 32 33 35 36 38 39 43 44 44 44 43 42 43 44 43 48 52 51 52 53 52 50
26 23 21 19 16 15 16 15 15 15 16 18 19 20 21 23 25 28 30 32 33 34 38 41 41 43 44 47 49 49 48 49 52 56 49 46 46 43 42 41 40 41 41 37 34 34 35 34 34 33 32 30 31 33 36 37 35 32 30 30 29 30 32 33 34 36 37 39 42 44 44 43 42 42 42 44 45 47 51 54 53 53 51 48 45
26 23 20 19 17 15 15 14 15 15 15 16 18 20 23 25 28 31 34 36 37 38 42 45 45 45 46 49 52 51 51 51 60 57 49 48 46 43 42 41 40 42 41 38 36 37 35 34 36 36 34 35 35 37 38 35 34 32 31 30 30 31 32 33 35 37 39 42 44 45 44 42 41 41 42 43 47 50 51 55 54 50 46 43 39
25 23 20 19 17 15 15 16 16 15 16 18 21 23 26 28 30 32 35 38 39 41 44 47 48 50 49 50 53 54 53 55 61 60 52 47 45 43 41 41 41 42 44 40 39 37 34 35 39 37 34 31 33 37 37 35 34 33 32 31 30 33 37 38 39 40 43 44 44 45 44 42 40 42 44 47 50 51 52 51 48 45 43 41 39
24 23 21 19 17 17 18 20 19 18 19 22 24 26 28 30 32 34 36 38 41 44 46 48 50 52 52 54 56 56 54 57 61 59 53 48 45 43 41 41 41 42 43 42 40 38 37 38 38 36 35 37 36 33 34 35 35 34 31 31 31 34 38 42 45 45 45 45 45 45 45 42 42 44 48 51 53 51 49 46 44 43 42 39 37
22 22 21 19 19 20 23 24 24 23 24 26 28 29 31 33 34 35 36 38 42 45 48 50 52 54 55 56 56 56 56 59 61 56 49 46 45 42 40 40 40 41 41 39 38 38 39 40 40 40 39 34 32 33 35 36 37 36 35 35 35 36 41 45 47 47 nan nan 47 44 42 42 42 46 49 53 53 49 45 41 41 40 38 36 35
21 21 20 19 20 22 24 26 27 27 28 29 30 31 33 35 35 36 37 38 42 46 49 53 55 56 58 59 58 58 55 61 58 54 47 44 44 42 39 38 38 39 40 37 35 37 40 42 43 43 40 35 31 34 37 39 38 35 33 32 33 36 40 45 48 49 nan nan nan 43 40 41 45 49 52 55 51 nan nan nan nan nan nan nan nan
22 22 22 22 23 24 25 27 29 30 32 32 33 34 35 36 36 37 39 41 44 48 51 55 58 59 60 61 60 58 56 62 56 51 46 42 42 39 38 37 37 39 40 38 36 37 39 41 46 45 43 36 31 34 40 41 38 35 35 35 36 39 42 45 48 51 51 52 49 44 44 47 54 nan nan nan nan nan nan nan nan nan nan nan nan
24 24 25 26 26 27 28 30 31 33 35 35 35 35 36 38 38 39 41 44 47 50 53 56 58 59 61 61 60 59 57 60 56 50 46 45 41 37 36 36 35 37 37 37 38 38 39 41 43 47 43 40 39 44 44 40 34 35 35 35 38 41 45 48 nan nan nan nan nan nan nan nan nan nan nan nan nan nan nan nan nan nan nan nan 33
26 26 27 27 29 30 31 33 34 36 38 38 37 37 37 38 39 41 42 45 48 51 54 56 57 58 60 60 61 60 58 56 55 51 49 48 46 40 37 37 36 35 36 36 37 37 37 38 42 46 44 42 51 49 43 38 35 35 35 36 40 44 48 48 47 53 nan nan nan nan nan nan nan nan nan nan nan nan nan nan nan nan nan nan nan
28 28 30 31 33 34 35 37 38 41 41 40 41 41 41 41 41 43 43 45 47 51 53 56 56 57 58 59 61 61 56 52 52 52 48 49 45 39 38 36 35 35 36 35 36 36 37 38 44 46 45 50 52 48 42 38 36 36 37 41 44 45 48 49 49 nan 46 43 43 43 nan nan nan nan nan nan nan nan nan nan nan nan 35 31 29
31 33 36 37 37 37 39 41 43 44 44 45 45 44 43 43 43 44 45 46 47 50 54 56 56 56 57 57 57 56 52 48 48 50 48 46 45 40 39 37 35 36 35 36 36 36 39 44 46 49 54 53 50 46 42 38 36 38 42 44 44 45 nan nan nan nan nan nan nan nan nan nan nan nan nan 37 35 36 nan nan nan 36 34 31 29
37 39 41 41 41 41 42 44 47 48 49 50 50 47 43 43 45 47 47 48 49 52 56 57 57 56 55 55 53 51 49 49 48 50 47 46 45 42 39 37 36 36 36 36 38 40 41 42 45 52 54 53 50 48 44 39 38 nan 45 43 44 nan nan nan nan nan nan nan nan nan nan nan nan nan nan nan nan nan 40 41 40 39 36 nan nan
40 42 44 45 45 45 46 48 49 51 54 55 54 49 46 47 48 49 49 51 52 53 56 57 58 57 55 53 51 49 46 47 48 47 45 44 44 43 39 38 37 37 37 37 40 41 42 42 46 50 53 52 52 49 43 40 nan nan nan nan nan nan nan nan nan nan nan nan nan nan nan nan nan nan nan nan nan nan nan nan nan nan nan nan nan
44 45 45 46 47 48 49 51 50 53 56 56 54 52 50 51 52 51 52 52 54 55 56 57 57 56 54 52 51 50 47 43 42 44 42 42 43 44 41 41 41 36 37 38 42 43 42 42 47 53 52 54 53 47 42 44 nan nan nan nan nan nan nan nan nan nan nan nan nan nan nan nan nan nan nan nan nan nan nan nan nan nan nan nan nan
47 47 47 48 49 49 51 51 51 55 57 56 56 54 52 51 53 51 51 52 54 55 55 57 56 55 53 51 50 50 49 45 43 45 43 43 43 45 43 43 42 39 37 38 45 46 45 45 48 54 54 54 51 46 nan nan nan nan nan nan nan nan nan nan nan nan nan nan nan nan nan nan nan nan nan nan nan nan nan nan nan nan nan nan nan
50 49 49 49 50 51 52 51 53 57 60 60 60 59 53 52 54 53 52 53 54 54 55 55 56 54 53 51 50 50 51 49 47 48 52 49 46 45 44 44 43 41 42 44 45 46 49 52 54 54 52 49 46 44 46 nan nan nan nan nan nan nan nan nan nan nan nan nan nan nan nan nan nan nan nan nan nan nan nan nan nan nan nan nan nan
52 51 50 50 51 52 54 55 56 59 63 64 66 62 56 51 53 53 51 52 53 53 54 54 53 53 52 50 50 53 54 52 51 49 48 49 47 47 48 47 46 47 46 47 50 54 55 53 53 52 48 42 40 nan nan nan nan nan nan nan nan nan nan nan nan nan nan nan nan nan nan nan nan nan nan nan nan nan nan nan nan nan nan nan nan
52 52 51 51 52 52 54 55 58 61 63 66 69 65 54 47 50 52 51 50 51 51 51 52 53 53 52 51 53 56 56 54 51 49 48 47 47 47 46 46 48 49 45 44 46 47 50 49 46 46 42 nan nan nan nan nan nan nan nan nan nan nan nan nan nan nan nan nan nan nan nan nan nan nan nan nan nan nan nan nan nan nan nan nan nan
52 52 52 51 52 53 55 58 58 57 57 59 60 55 46 43 48 52 51 51 51 51 51 52 53 53 52 53 54 56 56 55 52 51 50 49 48 46 44 nan 44 41 43 45 45 45 44 45 46 nan nan nan nan nan nan nan nan nan nan nan nan nan nan nan nan nan nan nan nan nan nan nan nan nan nan nan nan nan nan nan nan nan nan nan nan
53 54 53 54 55 57 57 56 53 52 53 53 49 44 41 43 48 50 53 51 48 47 49 53 54 53 52 54 55 56 57 57 54 51 52 50 50 48 nan 44 44 43 44 51 48 44 44 44 nan nan nan nan nan nan nan nan nan nan nan nan nan nan nan nan nan nan nan nan nan nan nan nan nan nan nan nan nan nan nan nan nan nan nan nan nan
55 55 54 56 56 56 54 51 52 53 54 53 53 51 52 56 53 52 52 50 51 50 50 50 49 47 50 50 53 59 59 57 57 59 59 57 nan nan nan 47 46 47 47 46 42 43 45 nan nan nan nan nan nan nan nan nan nan nan nan nan nan nan nan nan nan nan 37 nan nan nan nan nan nan nan nan nan nan nan nan nan nan nan nan nan nan
53 54 54 55 55 52 51 51 55 55 55 54 54 54 54 56 60 60 58 55 55 57 57 50 52 59 55 51 50 57 62 61 nan 64 63 nan nan 56 56 53 52 49 49 nan 39 42 47 47 44 nan nan nan nan nan nan nan nan nan nan nan nan nan nan nan nan nan nan nan nan nan nan nan nan nan nan nan nan nan nan nan nan nan nan nan nan
53 52 51 54 53 51 51 55 57 57 56 55 55 55 57 59 59 59 59 60 61 60 56 55 58 60 60 58 55 nan nan 58 65 67 62 59 nan nan 58 57 54 52 48 nan 41 42 43 47 nan nan nan nan nan nan nan nan nan nan nan nan nan nan nan nan nan nan nan nan nan nan nan nan nan nan nan nan nan nan nan nan nan nan nan nan nan
51 52 54 53 51 54 58 58 57 57 57 56 55 56 59 60 61 59 56 61 64 60 56 51 53 58 58 57 58 58 57 60 nan nan nan nan nan nan nan 55 53 nan nan nan nan nan nan nan nan nan nan nan nan nan nan nan nan nan nan nan nan nan nan nan nan nan nan nan nan nan nan nan nan nan nan nan nan nan nan nan nan nan nan nan nan
52 50 49 51 53 56 58 57 57 57 56 56 57 59 60 59 58 56 56 54 53 53 52 50 50 55 55 59 62 62 60 60 58 54 51 nan nan nan nan nan nan nan nan 38 nan nan nan nan nan nan nan nan nan nan nan nan nan nan nan nan nan nan nan nan nan nan nan nan nan nan nan nan nan nan nan nan nan nan nan nan nan nan nan nan nan
48 49 54 54 54 56 56 57 58 57 57 58 60 60 58 55 54 54 53 52 51 49 48 47 46 50 56 57 63 66 67 66 nan nan nan nan nan nan nan nan nan nan nan nan nan nan nan nan nan nan nan nan nan nan nan nan nan nan nan nan nan nan nan nan nan nan nan nan nan nan nan nan nan nan nan nan nan nan nan nan nan nan nan nan nan
45 47 50 55 55 55 54 55 57 56 57 59 59 57 54 51 52 52 52 53 51 51 50 47 47 46 53 53 54 62 65 65 nan nan nan nan nan nan nan nan nan nan nan nan nan nan nan nan nan nan nan nan nan nan nan nan nan nan nan nan nan nan nan nan nan nan nan nan nan nan nan nan nan nan nan nan nan nan nan nan nan nan nan nan nan
47 49 50 52 53 53 54 57 58 58 58 58 56 54 52 52 52 52 52 51 50 50 51 51 52 52 52 52 nan nan nan nan nan nan nan nan nan nan nan nan nan nan nan nan nan nan nan nan nan nan nan nan nan nan nan nan nan nan nan nan nan nan nan nan nan nan nan nan nan nan nan nan nan nan nan nan nan nan nan nan nan nan nan nan nan
49 51 51 52 51 55 57 58 60 61 59 55 53 52 52 51 50 51 51 49 nan 50 51 51 51 nan nan nan nan nan nan nan nan nan nan nan nan nan nan nan nan nan nan nan nan nan nan nan nan nan nan nan nan nan nan nan nan nan nan nan nan nan nan nan nan nan nan nan nan nan nan nan nan nan nan nan nan nan nan nan nan nan nan nan nan
52 56 61 60 57 58 59 61 61 58 56 53 52 51 51 49 49 50 49 nan nan nan nan nan nan nan nan nan 51 nan nan nan nan nan nan nan nan nan nan nan nan nan nan nan nan nan nan nan nan nan nan nan nan nan nan nan nan nan nan nan nan nan nan nan nan nan nan nan nan nan nan nan nan nan nan nan nan nan nan nan nan nan nan nan nan
55 55 58 61 58 60 59 58 55 54 52 50 50 49 49 48 48 49 nan nan nan nan nan nan 49 49 nan nan nan nan nan nan nan nan nan nan nan nan nan nan nan nan nan nan nan nan nan nan nan nan nan nan nan nan nan nan nan nan nan nan nan nan nan nan nan nan nan nan nan nan nan nan nan nan nan nan nan nan nan nan nan nan nan nan nan
54 55 52 52 55 54 54 53 50 50 49 47 47 45 47 48 48 49 49 nan nan nan nan nan nan nan nan nan nan nan nan nan nan nan nan nan nan nan nan nan nan nan nan nan nan nan nan nan nan nan nan nan nan nan nan nan nan nan nan nan nan nan nan nan nan nan nan nan nan nan nan nan nan nan nan nan nan nan nan nan nan nan nan nan nan
51 50 49 51 53 51 50 46 45 47 44 43 47 45 47 48 49 49 49 49 nan nan nan nan nan nan nan nan nan nan nan nan nan nan nan nan nan nan nan nan nan nan nan nan nan nan nan nan nan nan nan nan nan nan nan nan nan nan nan nan nan nan nan nan nan nan nan nan nan nan nan nan nan nan nan nan nan nan nan nan nan nan nan nan nan
44 44 46 46 45 46 44 43 43 43 41 42 44 47 49 50 49 48 47 46 nan nan nan nan nan nan nan nan nan nan nan nan nan nan nan nan nan nan nan nan nan nan nan nan nan nan nan nan nan nan nan nan nan nan nan nan nan nan nan nan nan nan nan nan nan nan nan nan nan nan nan nan nan nan nan nan nan nan nan nan nan nan nan nan nan
41 41 41 42 42 41 42 42 42 42 42 45 46 48 48 47 48 47 43 43 42 nan nan nan nan nan nan nan nan nan nan nan nan nan nan nan nan nan nan nan nan nan nan nan nan nan nan nan nan nan nan nan nan nan nan nan nan nan nan nan nan nan nan nan nan nan nan nan nan nan nan nan nan nan nan nan nan nan nan nan nan nan nan nan nan
39 38 39 40 41 41 42 42 43 44 45 45 46 46 46 45 43 42 41 40 39 nan nan nan nan nan nan nan nan nan nan nan nan nan nan nan nan nan nan nan nan nan nan nan nan nan nan nan nan nan nan nan nan nan nan nan nan nan nan nan nan nan nan nan nan nan nan nan nan nan nan nan nan nan nan nan nan nan nan nan nan nan nan nan nan
nan 38 39 41 41 42 43 44 45 46 45 43 44 44 42 41 38 37 nan nan nan nan nan nan nan nan nan nan nan nan nan nan nan nan nan nan nan nan nan nan nan nan nan nan nan nan nan nan nan nan nan nan nan nan nan nan nan nan nan nan nan nan nan nan nan nan nan nan nan nan nan nan nan nan nan nan nan nan nan nan nan nan nan nan nan
40 42 41 41 42 43 45 44 44 43 42 nan nan nan nan nan nan 39 39 40 nan 43 44 44 nan nan nan nan nan nan nan nan nan nan nan nan nan nan nan nan nan nan nan nan nan nan nan nan nan nan nan nan nan nan nan nan nan nan nan nan nan nan nan nan nan nan nan nan nan nan nan nan nan nan nan nan nan nan nan nan nan nan nan nan nan
39 40 41 42 42 44 43 42 nan nan nan nan nan nan nan nan nan nan nan nan 44 44 43 42 41 41 nan nan nan nan nan nan nan nan nan nan nan nan nan nan nan nan nan nan nan nan nan nan nan nan nan nan nan nan nan nan nan nan nan nan nan nan nan nan nan nan nan nan nan nan nan nan nan nan nan nan nan nan nan nan nan nan nan nan nan
39 nan nan nan 40 39 nan nan nan nan nan nan nan nan 38 nan nan nan 40 nan nan 42 40 39 38 37 35 35 nan nan nan nan nan nan nan nan nan nan nan nan nan nan nan nan nan nan nan nan nan nan nan nan nan nan nan nan nan nan nan nan nan nan nan nan nan nan nan nan nan nan nan nan nan nan nan nan nan nan nan nan nan nan nan nan nan
nan nan 39 nan 37 38 38 37 nan nan 36 36 37 37 nan 39 40 40 41 40 41 40 36 36 36 35 33 31 30 nan nan nan nan nan nan nan nan nan nan nan nan nan nan nan nan nan nan nan nan nan nan nan nan nan nan nan nan nan nan nan nan nan nan nan nan nan nan nan nan nan nan nan nan nan nan nan nan nan nan nan nan nan nan nan nan
36 nan nan nan nan 35 nan 35 nan 36 36 nan 36 37 nan 40 41 40 40 39 nan 37 35 34 33 33 31 29 28 28 27 25 24 nan nan nan nan nan nan nan nan nan nan nan nan nan nan nan nan nan nan nan nan nan nan nan nan nan nan nan nan nan nan nan nan nan nan nan nan nan nan nan nan nan nan nan nan nan nan nan nan nan nan nan nan
Wind_Direction
327 322 315 315 314 322 326 326 329 327 327 325 321 323 324 323 326 323 322 325 327 328 330 332 333 331 332 332 331 330 329 326 323 323 323 323 320 319 318 322 327 329 327 322 319 314 308 297 288 288 286 286 286 287 288 289 291 294 294 295 297 298 298 299 300 299 300 303 305 306 307 308 308 310 311 312 314 315 317 316 315 313 311 310 309
329 323 318 315 319 321 328 329 331 328 331 329 327 326 327 325 322 322 327 329 331 332 333 332 333 331 331 331 330 327 327 326 324 323 322 322 322 319 319 321 326 326 323 320 317 311 306 300 298 294 291 292 292 291 288 286 287 289 291 295 298 298 299 301 299 300 302 301 304 305 305 305 307 308 311 313 313 312 311 309 307 306 305 304 304
330 321 320 318 320 321 327 331 331 334 336 331 336 334 331 327 322 326 326 332 332 333 333 333 331 330 330 330 326 325 325 326 323 320 317 318 321 320 320 321 324 325 321 320 318 311 304 300 300 300 298 299 299 297 290 285 283 284 283 286 292 296 298 299 297 297 299 300 299 300 302 304 307 307 308 309 309 311 311 309 308 306 306 307 307
331 322 323 325 326 328 332 332 336 338 341 333 336 337 333 329 325 328 328 330 331 331 332 333 331 331 330 328 325 323 323 324 321 318 318 319 322 321 319 322 325 323 320 320 321 313 306 304 306 307 307 307 305 301 295 288 284 284 285 289 293 296 296 296 297 298 295 294 295 299 302 305 308 309 309 310 312 311 309 307 307 308 308 308 308
333 325 327 332 334 335 339 336 335 336 336 332 335 337 337 336 331 332 331 332 329 329 330 333 332 333 333 331 325 323 323 322 320 320 321 321 321 318 317 321 325 324 321 321 321 314 307 305 306 308 307 308 306 306 300 297 292 289 288 291 295 296 295 294 294 295 295 296 297 300 302 306 309 311 312 312 311 308 305 304 304 306 308 309 310
333 326 324 328 332 338 339 337 336 333 332 332 335 337 340 337 334 331 331 331 327 328 330 332 332 334 335 333 329 326 325 323 321 323 323 320 317 316 316 320 323 324 322 319 319 314 308 307 306 304 306 310 310 305 300 299 296 295 296 298 297 294 293 294 294 297 299 301 302 303 305 308 309 311 311 309 306 303 302 302 302 304 305 306 308
328 324 323 328 329 335 334 333 328 328 326 327 328 332 338 338 337 338 334 333 331 332 331 333 331 332 333 331 331 330 328 326 323 321 318 317 319 317 318 320 320 321 321 317 316 317 317 314 311 310 310 312 311 304 298 296 296 298 299 297 295 295 295 296 300 302 303 303 305 309 311 312 313 311 309 306 304 304 303 302 304 306 307 307 307
323 322 318 320 327 332 329 328 325 323 323 324 326 328 330 329 329 328 330 333 337 334 332 332 330 331 331 330 329 328 328 327 323 317 315 319 320 316 316 318 318 319 319 316 313 315 315 316 317 312 311 312 308 301 294 295 297 299 297 292 292 295 298 301 302 304 304 305 308 311 313 313 311 311 308 305 303 304 306 307 307 307 307 306 305
318 320 315 316 322 323 316 316 318 318 320 321 323 325 326 327 327 327 331 334 333 333 330 330 329 331 330 328 326 325 326 326 322 318 318 320 317 315 315 316 317 316 316 314 313 313 315 317 318 314 310 315 317 309 303 300 299 298 296 296 295 296 299 302 305 306 306 307 308 310 311 312 311 308 306 305 306 307 307 306 308 307 305 303 302
313 315 313 312 310 308 310 311 312 313 316 321 325 326 327 329 330 329 330 333 332 331 327 328 330 330 329 327 324 324 324 323 322 326 325 315 313 312 313 314 315 314 313 314 313 313 312 314 317 322 315 313 314 310 306 305 305 300 294 293 296 300 304 306 307 307 307 309 310 310 311 312 309 305 303 303 304 304 304 305 306 305 302 301 302
308 311 309 305 302 301 302 303 303 312 316 317 322 326 326 325 325 324 325 328 330 327 325 328 331 330 330 327 325 325 326 325 326 327 322 318 311 310 312 313 314 311 309 310 311 308 306 309 313 315 312 305 303 305 300 299 297 297 296 296 299 303 306 309 310 308 308 309 309 311 312 310 307 303 303 303 302 301 302 303 305 303 302 301 300
306 307 302 297 296 296 291 297 302 306 307 313 316 317 318 319 320 321 323 325 326 326 327 328 327 327 327 326 326 326 327 327 325 323 321 320 314 308 307 309 311 311 309 311 308 308 308 308 311 310 304 302 297 296 299 303 303 301 301 303 307 312 315 313 310 308 308 309 310 313 312 309 306 305 304 301 301 302 303 303 303 303 304 304 302
300 299 297 295 290 284 283 291 296 295 301 307 309 311 314 314 316 320 322 322 323 325 325 324 324 324 323 324 323 325 326 325 324 322 320 321 317 311 305 307 312 313 309 309 310 311 308 307 308 305 295 296 293 297 298 297 300 305 303 303 308 315 317 317 315 313 308 309 311 313 312 308 306 304 302 302 303 305 304 304 303 304 304 305 304
295 297 296 293 284 280 282 287 290 290 297 305 310 313 316 317 318 320 320 321 322 322 321 320 318 318 319 321 322 324 325 322 324 320 318 319 318 312 306 309 308 306 304 306 310 309 307 306 307 299 290 291 292 295 294 294 296 299 299 301 306 314 317 318 319 320 nan nan 311 310 308 306 306 303 303 305 307 306 304 305 305 306 308 309 305
289 294 296 293 290 287 288 290 290 292 300 307 311 314 316 314 316 316 317 317 317 319 317 315 315 315 317 320 321 323 324 324 323 321 320 320 319 312 303 303 304 303 302 304 307 307 305 305 305 300 293 292 298 297 297 299 299 297 297 299 303 306 309 311 311 310 nan nan nan 313 309 307 306 307 308 308 307 nan nan nan nan nan nan nan nan
285 290 295 298 301 300 299 298 298 297 301 305 308 312 311 310 311 310 311 310 308 308 310 311 313 315 317 318 319 321 322 324 323 320 320 319 314 307 303 302 302 302 304 307 307 304 303 304 299 297 299 303 301 305 303 301 301 302 302 302 301 304 307 307 305 306 307 308 310 309 304 302 305 nan nan nan nan nan nan nan nan nan nan nan nan
285 292 297 299 300 301 299 299 299 298 300 302 304 304 304 305 305 305 308 308 306 309 311 312 313 314 316 316 317 320 318 322 318 319 319 318 309 305 304 302 301 303 303 303 304 303 304 303 300 298 298 303 310 310 307 304 302 304 303 300 298 301 303 303 nan nan nan nan nan nan nan nan nan nan nan nan nan nan nan nan nan nan nan nan 309
283 288 292 294 293 292 292 292 293 292 293 295 296 296 297 297 301 301 307 308 307 310 310 311 314 315 316 317 317 317 313 316 316 315 318 316 313 309 306 303 302 302 301 302 301 302 305 313 302 297 302 301 302 304 302 300 303 306 303 303 303 303 303 302 301 298 nan nan nan nan nan nan nan nan nan nan nan nan nan nan nan nan nan nan nan
281 284 284 282 282 283 284 285 287 288 290 292 293 293 295 297 298 300 303 303 304 306 309 310 311 312 313 314 316 317 312 313 315 316 317 314 311 305 303 301 301 302 301 302 302 301 301 302 300 297 295 294 296 293 293 297 302 303 305 306 303 302 300 295 294 nan 300 303 304 305 nan nan nan nan nan nan nan nan nan nan nan nan 314 311 308
277 275 275 277 279 282 284 286 288 290 290 290 288 288 291 295 299 300 301 300 302 304 307 308 308 308 309 313 314 317 311 306 312 316 314 313 313 306 302 302 302 302 301 301 302 301 296 292 296 297 294 296 293 292 291 295 299 303 306 306 302 300 nan nan nan nan nan nan nan nan nan nan nan nan nan 315 320 321 nan nan nan 313 311 309 307
274 274 274 277 279 282 283 286 288 289 286 284 282 285 292 296 296 295 298 298 297 300 303 305 306 307 309 308 310 310 308 307 311 315 316 317 318 313 304 302 299 298 299 300 299 297 295 291 286 292 296 295 295 295 294 295 301 nan 309 308 301 nan nan nan nan nan nan nan nan nan nan nan nan nan nan nan nan nan 303 310 312 313 310 nan nan
271 273 275 278 279 280 280 280 283 283 283 282 286 291 294 293 292 294 295 294 297 297 297 298 302 308 310 311 311 311 309 310 306 314 317 319 318 316 302 301 297 297 297 299 298 298 296 295 291 294 296 296 296 295 293 298 nan nan nan nan nan nan nan nan nan nan nan nan nan nan nan nan nan nan nan nan nan nan nan nan nan nan nan nan nan
268 269 272 274 275 277 277 279 280 281 281 282 285 289 291 290 289 291 292 294 296 297 299 301 305 309 310 309 309 311 312 313 313 310 318 319 316 312 309 295 284 294 296 298 298 297 295 294 291 296 295 296 295 292 294 305 nan nan nan nan nan nan nan nan nan nan nan nan nan nan nan nan nan nan nan nan nan nan nan nan nan nan nan nan nan
266 267 269 271 274 277 279 280 281 281 280 279 281 285 288 288 288 289 292 294 296 299 301 304 307 309 311 310 310 313 316 315 317 317 315 317 311 311 312 289 279 281 288 293 295 296 295 289 288 293 293 294 293 294 nan nan nan nan nan nan nan nan nan nan nan nan nan nan nan nan nan nan nan nan nan nan nan nan nan nan nan nan nan nan nan
265 267 271 273 276 277 278 279 280 279 279 280 279 280 284 283 283 286 289 291 295 298 299 304 307 310 310 311 312 313 307 304 303 311 315 313 311 309 304 294 284 281 287 288 289 290 290 289 290 291 292 291 292 298 308 nan nan nan nan nan nan nan nan nan nan nan nan nan nan nan nan nan nan nan nan nan nan nan nan nan nan nan nan nan nan
265 269 271 274 276 278 279 280 280 280 280 279 279 281 284 284 283 285 287 290 293 297 301 305 308 308 310 311 311 306 304 302 301 301 303 303 301 303 303 298 285 278 281 289 291 292 290 289 289 289 288 290 294 nan nan nan nan nan nan nan nan nan nan nan nan nan nan nan nan nan nan nan nan nan nan nan nan nan nan nan nan nan nan nan nan
264 268 271 273 275 276 279 278 277 279 281 283 284 282 280 280 284 287 289 292 295 299 304 307 307 307 308 309 307 306 304 303 304 305 306 305 302 299 295 291 286 283 286 291 291 288 288 289 291 294 293 nan nan nan nan nan nan nan nan nan nan nan nan nan nan nan nan nan nan nan nan nan nan nan nan nan nan nan nan nan nan nan nan nan nan
265 268 271 270 270 270 270 272 274 279 285 291 295 291 282 281 288 291 292 295 297 302 304 306 305 306 307 306 306 307 306 306 308 309 308 308 305 299 293 nan 287 285 290 297 297 292 287 287 288 nan nan nan nan nan nan nan nan nan nan nan nan nan nan nan nan nan nan nan nan nan nan nan nan nan nan nan nan nan nan nan nan nan nan nan nan
262 265 265 265 264 264 268 273 280 284 282 281 281 277 275 280 285 290 286 285 289 296 303 303 304 305 308 309 310 309 307 308 309 307 307 306 304 299 nan 290 285 282 289 299 299 291 285 286 nan nan nan nan nan nan nan nan nan nan nan nan nan nan nan nan nan nan nan nan nan nan nan nan nan nan nan nan nan nan nan nan nan nan nan nan nan
264 266 267 268 270 272 274 280 282 285 285 283 282 278 274 278 281 285 286 280 282 289 293 300 302 303 301 301 306 309 309 307 303 306 305 300 nan nan nan 288 286 284 290 298 298 289 288 nan nan nan nan nan nan nan nan nan nan nan nan nan nan nan nan nan nan nan 302 nan nan nan nan nan nan nan nan nan nan nan nan nan nan nan nan nan nan
261 265 267 270 273 276 279 282 281 282 283 284 283 284 286 281 277 278 281 282 281 280 282 283 298 304 304 304 297 295 299 301 nan 309 306 nan nan 293 288 286 287 288 293 nan 294 288 291 290 284 nan nan nan nan nan nan nan nan nan nan nan nan nan nan nan nan nan nan nan nan nan nan nan nan nan nan nan nan nan nan nan nan nan nan nan nan
258 261 265 269 273 277 279 280 280 281 282 283 283 286 288 288 283 276 276 278 278 280 280 284 289 292 294 296 297 nan nan 298 301 302 300 292 nan nan 281 280 282 284 284 nan 289 289 287 286 nan nan nan nan nan nan nan nan nan nan nan nan nan nan nan nan nan nan nan nan nan nan nan nan nan nan nan nan nan nan nan nan nan nan nan nan nan
254 257 260 268 271 272 273 276 278 280 282 282 283 285 288 288 285 284 280 280 281 281 281 282 286 291 291 291 294 297 300 299 nan nan nan nan nan nan nan 278 279 nan nan nan nan nan nan nan nan nan nan nan nan nan nan nan nan nan nan nan nan nan nan nan nan nan nan nan nan nan nan nan nan nan nan nan nan nan nan nan nan nan nan nan nan
245 257 264 267 269 272 275 277 278 279 280 282 284 286 288 287 287 287 289 292 290 286 282 280 283 287 288 293 293 294 294 293 294 296 293 nan nan nan nan nan nan nan nan 293 nan nan nan nan nan nan nan nan nan nan nan nan nan nan nan nan nan nan nan nan nan nan nan nan nan nan nan nan nan nan nan nan nan nan nan nan nan nan nan nan nan
250 260 269 269 270 273 276 278 279 281 282 284 286 288 289 289 289 292 294 296 295 294 292 289 284 288 296 295 297 299 301 300 nan nan nan nan nan nan nan nan nan nan nan nan nan nan nan nan nan nan nan nan nan nan nan nan nan nan nan nan nan nan nan nan nan nan nan nan nan nan nan nan nan nan nan nan nan nan nan nan nan nan nan nan nan
261 262 265 268 270 272 275 278 280 283 285 287 289 290 291 292 293 296 296 293 294 295 293 291 292 287 286 288 294 299 301 301 nan nan nan nan nan nan nan nan nan nan nan nan nan nan nan nan nan nan nan nan nan nan nan nan nan nan nan nan nan nan nan nan nan nan nan nan nan nan nan nan nan nan nan nan nan nan nan nan nan nan nan nan nan
263 264 265 267 270 274 274 276 280 284 287 289 290 292 293 295 296 297 294 294 295 296 295 296 295 293 292 291 nan nan nan nan nan nan nan nan nan nan nan nan nan nan nan nan nan nan nan nan nan nan nan nan nan nan nan nan nan nan nan nan nan nan nan nan nan nan nan nan nan nan nan nan nan nan nan nan nan nan nan nan nan nan nan nan nan
264 266 266 269 270 271 274 278 282 285 287 288 289 290 291 293 293 292 292 293 nan 296 297 297 298 nan nan nan nan nan nan nan nan nan nan nan nan nan nan nan nan nan nan nan nan nan nan nan nan nan nan nan nan nan nan nan nan nan nan nan nan nan nan nan nan nan nan nan nan nan nan nan nan nan nan nan nan nan nan nan nan nan nan nan nan
258 262 263 264 268 272 276 280 283 286 286 286 288 289 290 291 291 291 292 nan nan nan nan nan nan nan nan nan 297 nan nan nan nan nan nan nan nan nan nan nan nan nan nan nan nan nan nan nan nan nan nan nan nan nan nan nan nan nan nan nan nan nan nan nan nan nan nan nan nan nan nan nan nan nan nan nan nan nan nan nan nan nan nan nan nan
260 261 263 270 271 275 279 282 284 284 285 288 290 292 292 293 293 292 nan nan nan nan nan nan 298 297 nan nan nan nan nan nan nan nan nan nan nan nan nan nan nan nan nan nan nan nan nan nan nan nan nan nan nan nan nan nan nan nan nan nan nan nan nan nan nan nan nan nan nan nan nan nan nan nan nan nan nan nan nan nan nan nan nan nan nan
260 262 266 270 276 281 281 283 285 285 287 288 288 289 289 290 291 292 293 nan nan nan nan nan nan nan nan nan nan nan nan nan nan nan nan nan nan nan nan nan nan nan nan nan nan nan nan nan nan nan nan nan nan nan nan nan nan nan nan nan nan nan nan nan nan nan nan nan nan nan nan nan nan nan nan nan nan nan nan nan nan nan nan nan nan
262 268 271 273 274 276 278 282 283 283 286 288 289 291 289 289 291 291 292 294 nan nan nan nan nan nan nan nan nan nan nan nan nan nan nan nan nan nan nan nan nan nan nan nan nan nan nan nan nan nan nan nan nan nan nan nan nan nan nan nan nan nan nan nan nan nan nan nan nan nan nan nan nan nan nan nan nan nan nan nan nan nan nan nan nan
273 274 276 277 279 280 281 282 282 286 288 289 289 285 285 286 288 289 291 292 nan nan nan nan nan nan nan nan nan nan nan nan nan nan nan nan nan nan nan nan nan nan nan nan nan nan nan nan nan nan nan nan nan nan nan nan nan nan nan nan nan nan nan nan nan nan nan nan nan nan nan nan nan nan nan nan nan nan nan nan nan nan nan nan nan
274 276 277 278 280 280 280 284 287 287 287 286 286 287 289 290 290 288 290 292 293 nan nan nan nan nan nan nan nan nan nan nan nan nan nan nan nan nan nan nan nan nan nan nan nan nan nan nan nan nan nan nan nan nan nan nan nan nan nan nan nan nan nan nan nan nan nan nan nan nan nan nan nan nan nan nan nan nan nan nan nan nan nan nan nan
275 274 276 278 279 281 283 284 283 283 282 284 286 286 285 284 287 291 292 292 292 nan nan nan nan nan nan nan nan nan nan nan nan nan nan nan nan nan nan nan nan nan nan nan nan nan nan nan nan nan nan nan nan nan nan nan nan nan nan nan nan nan nan nan nan nan nan nan nan nan nan nan nan nan nan nan nan nan nan nan nan nan nan nan nan
nan 277 278 278 279 281 283 283 282 283 285 285 285 286 285 286 286 287 nan nan nan nan nan nan nan nan nan nan nan nan nan nan nan nan nan nan nan nan nan nan nan nan nan nan nan nan nan nan nan nan nan nan nan nan nan nan nan nan nan nan nan nan nan nan nan nan nan nan nan nan nan nan nan nan nan nan nan nan nan nan nan nan nan nan nan
267 271 275 280 281 281 280 280 282 283 284 nan nan nan nan nan nan 286 287 291 nan 293 295 296 nan nan nan nan nan nan nan nan nan nan nan nan nan nan nan nan nan nan nan nan nan nan nan nan nan nan nan nan nan nan nan nan nan nan nan nan nan nan nan nan nan nan nan nan nan nan nan nan nan nan nan nan nan nan nan nan nan nan nan nan nan
270 274 276 276 278 279 279 280 nan nan nan nan nan nan nan nan nan nan nan nan 292 293 294 294 294 295 nan nan nan nan nan nan nan nan nan nan nan nan nan nan nan nan nan nan nan nan nan nan nan nan nan nan nan nan nan nan nan nan nan nan nan nan nan nan nan nan nan nan nan nan nan nan nan nan nan nan nan nan nan nan nan nan nan nan nan
272 nan nan nan 276 276 nan nan nan nan nan nan nan nan 281 nan nan nan 288 nan nan 291 291 292 292 293 296 298 nan nan nan nan nan nan nan nan nan nan nan nan nan nan nan nan nan nan nan nan nan nan nan nan nan nan nan nan nan nan nan nan nan nan nan nan nan nan nan nan nan nan nan nan nan nan nan nan nan nan nan nan nan nan nan nan nan
nan nan 275 nan 273 273 274 274 nan nan 276 278 280 282 nan 284 286 287 288 286 282 284 290 291 294 296 298 300 301 nan nan nan nan nan nan nan nan nan nan nan nan nan nan nan nan nan nan nan nan nan nan nan nan nan nan nan nan nan nan nan nan nan nan nan nan nan nan nan nan nan nan nan nan nan nan nan nan nan nan nan nan nan nan nan nan
267 nan nan nan nan 272 nan 275 nan 275 277 nan 282 283 nan 283 284 284 284 284 nan 288 291 293 296 298 300 300 300 301 301 301 301 nan nan nan nan nan nan nan nan nan nan nan nan nan nan nan nan nan nan nan nan nan nan nan nan nan nan nan nan nan nan nan nan nan nan nan nan nan nan nan nan nan nan nan nan nan nan nan nan nan nan nan nan